Flag for Panama Weather past 2 weeks in Panama, Panama

Now
77 °F

Passing clouds.


Feels Like: 78 °F
Forecast: 75 / 86 °F
Wind: 2 mph from North

Location: Marcos A. Gelabert

Current Time: Dec 20, 2014 at 1:10:02 AM

Latest Report: Dec 19, 2014 at 10:00 PM


Visibility: N/A

Pressure: 29.89 "Hg

Humidity: 89%

Dew point: 73 °F

Location of PanamaLocation

Historic Weather in Panama — Graph

°F

Panama temperature yesterday

Maximum temperature yesterday: 90 °F (at 12:00 PM)
Minimum temperature yesterday: 75 °F (at 7:00 AM)
Average temperature yesterday: 82 °F

Past Weeks' High & Low Weather Summary

 TemperatureHumidityPressure
High90 °F (Dec 12, 1:00 PM)100% (Dec 6, 6:00 AM)29.98 "Hg (Dec 6, 6:00 AM)
Low73 °F (Dec 12, 6:00 AM)55% (Dec 9, 12:00 PM)29.77 "Hg (Dec 7, 6:00 PM)
Average80 °F83%29.87 "Hg
* Reported Dec 4 10:00 PM — Dec 19 10:00 PM, Panama, Weather by CustomWeather, © 2014

Note: Actual official high and low records may vary slightly from our data, if they occured in-between our weather recording intervals... More about our weather records

Advertising

Panama weather history for previous 24 hours

 ConditionsComfort  
Time TempWeatherWind HumidityBarometerVisibility
10:00 PM
Dec 19
77 °FPassing clouds.2 mph89%29.89 "HgN/A
9:00 PM79 °FPassing clouds.1 mph84%29.86 "HgN/A
8:00 PM79 °FPassing clouds.No wind89%29.86 "HgN/A
7:00 PM81 °FPassing clouds.No wind79%29.83 "HgN/A
6:00 PM82 °FPassing clouds.5 mph79%29.80 "HgN/A
5:00 PM84 °FPassing clouds.No wind74%29.77 "HgN/A
4:00 PM84 °FPassing clouds.No wind79%29.77 "HgN/A
3:14 PM82 °FScattered clouds.No wind89%29.80 "HgN/A
3:00 PMN/AScattered clouds.No windN/A29.80 "HgN/A
2:00 PM77 °FLots of rain. Broken clouds.13 mph100%29.83 "Hg1 mi
1:00 PM90 °FScattered clouds.No wind63%29.83 "Hg6 mi
12:00 PM90 °FScattered clouds.2 mph63%29.86 "Hg6 mi
11:00 AM86 °FScattered clouds.1 mph70%29.89 "Hg6 mi
10:00 AM84 °FPassing clouds.1 mph74%29.89 "Hg6 mi
9:00 AM82 °FPassing clouds.1 mph79%29.89 "Hg6 mi
8:00 AM79 °FClear.No wind89%29.86 "Hg6 mi
7:00 AM75 °FPassing clouds.No wind100%29.86 "Hg6 mi
6:00 AM77 °FPassing clouds.2 mph94%29.83 "HgN/A
Weather by CustomWeather, © 2014

See weather overviewHow to use our weather pages